NPT155 EGAA-EGAA

Flight info

Callsign NPT155
Flight time 0h 18m
Altitude 3500
Route DIVIS
Aircraft B738/M-SDE2E3FGHIRWXY/LB1

Departure

Time 2026-05-04 14:50
Airport Belfast International Airport (EGAA)

Arrival

Time 2026-05-04 15:09
Airport Belfast International Airport (EGAA)
Time Latitude Longitude Altitude Speed Heading
2026-05-04 14:29 54.65885 -6.22241 228 ft 0 kts 154°
2026-05-04 14:40 54.65890 -6.22245 228 ft 0 kts 154°
2026-05-04 14:41 54.65900 -6.22254 227 ft 2 kts 136°
2026-05-04 14:41 54.65908 -6.22276 227 ft 2 kts 109°
2026-05-04 14:41 54.65908 -6.22316 227 ft 1 kts 65°
2026-05-04 14:42 54.65905 -6.22326 226 ft 0 kts 64°
2026-05-04 14:43 54.65912 -6.22298 227 ft 8 kts 64°
2026-05-04 14:44 54.65946 -6.22174 228 ft 11 kts 69°
2026-05-04 14:44 54.65937 -6.22060 230 ft 9 kts 136°
2026-05-04 14:44 54.65885 -6.22026 232 ft 8 kts 163°
2026-05-04 14:44 54.65841 -6.21928 234 ft 13 kts 76°
2026-05-04 14:45 54.65880 -6.21783 237 ft 13 kts 65°
2026-05-04 14:45 54.65918 -6.21633 239 ft 12 kts 65°
2026-05-04 14:45 54.65954 -6.21505 241 ft 10 kts 64°
2026-05-04 14:45 54.65984 -6.21394 243 ft 11 kts 65°
2026-05-04 14:46 54.66025 -6.21241 246 ft 13 kts 65°
2026-05-04 14:46 54.66061 -6.21104 248 ft 11 kts 66°
2026-05-04 14:46 54.66090 -6.20996 251 ft 8 kts 65°
2026-05-04 14:46 54.66110 -6.20920 252 ft 6 kts 66°
2026-05-04 14:47 54.66130 -6.20840 253 ft 8 kts 66°
2026-05-04 14:47 54.66169 -6.20707 256 ft 17 kts 63°
2026-05-04 14:47 54.66231 -6.20477 260 ft 24 kts 66°
2026-05-04 14:47 54.66304 -6.20205 264 ft 24 kts 64°
2026-05-04 14:48 54.66372 -6.19953 267 ft 22 kts 66°
2026-05-04 14:48 54.66367 -6.19714 269 ft 20 kts 138°
2026-05-04 14:48 54.66257 -6.19691 269 ft 15 kts 238°
2026-05-04 14:48 54.66251 -6.19713 269 ft 0 kts 243°
2026-05-04 14:49 54.66250 -6.19716 269 ft 0 kts 243°
2026-05-04 14:49 54.66248 -6.19721 269 ft 0 kts 243°
2026-05-04 14:49 54.66241 -6.19746 269 ft 10 kts 244°
2026-05-04 14:49 54.66102 -6.20262 263 ft 81 kts 244°
2026-05-04 14:50 54.65775 -6.21483 243 ft 140 kts 244°
2026-05-04 14:50 54.65305 -6.23165 464 ft 162 kts 243°
2026-05-04 14:50 54.64811 -6.24783 1210 ft 154 kts 246°
2026-05-04 14:50 54.64321 -6.26486 1675 ft 163 kts 249°
2026-05-04 14:51 54.63898 -6.28217 2389 ft 152 kts 253°
2026-05-04 14:51 54.63536 -6.29909 2863 ft 158 kts 253°
2026-05-04 14:51 54.63305 -6.31886 3095 ft 176 kts 272°
2026-05-04 14:51 54.63533 -6.33941 3427 ft 179 kts 296°
2026-05-04 14:52 54.64275 -6.35621 3338 ft 172 kts 322°
2026-05-04 14:52 54.65308 -6.36586 3086 ft 171 kts 336°
2026-05-04 14:52 54.66392 -6.37357 2868 ft 167 kts 336°
2026-05-04 14:52 54.67483 -6.38000 2735 ft 165 kts 348°
2026-05-04 14:53 54.68624 -6.37930 2658 ft 166 kts 12°
2026-05-04 14:53 54.69630 -6.37012 2793 ft 170 kts 40°
2026-05-04 14:53 54.70303 -6.35268 2922 ft 179 kts 67°
2026-05-04 14:53 54.70656 -6.33181 2896 ft 181 kts 67°
2026-05-04 14:54 54.71130 -6.31169 2702 ft 178 kts 63°
2026-05-04 14:54 54.71641 -6.29205 2541 ft 177 kts 62°
2026-05-04 14:54 54.72133 -6.27296 2460 ft 175 kts 63°
2026-05-04 14:54 54.72614 -6.25358 2514 ft 173 kts 63°
2026-05-04 14:55 54.73105 -6.23442 2776 ft 173 kts 62°
2026-05-04 14:55 54.73610 -6.21537 3161 ft 174 kts 61°
2026-05-04 14:55 54.74128 -6.19621 3454 ft 178 kts 65°
2026-05-04 14:55 54.74371 -6.17490 3567 ft 189 kts 90°
2026-05-04 14:56 54.74045 -6.15355 3928 ft 173 kts 119°
2026-05-04 14:56 54.73284 -6.13834 3830 ft 179 kts 144°
2026-05-04 14:56 54.72152 -6.12770 3475 ft 185 kts 157°
2026-05-04 14:56 54.71086 -6.11968 3598 ft 155 kts 159°
2026-05-04 14:57 54.70035 -6.11335 3074 ft 169 kts 173°
2026-05-04 14:57 54.68895 -6.11484 2680 ft 162 kts 206°
2026-05-04 14:57 54.68051 -6.12631 2212 ft 158 kts 243°
2026-05-04 14:57 54.67601 -6.14319 1805 ft 151 kts 251°
2026-05-04 14:58 54.67201 -6.16000 1339 ft 153 kts 251°
2026-05-04 14:58 54.66791 -6.17650 939 ft 151 kts 247°
2026-05-04 14:58 54.66358 -6.19298 506 ft 151 kts 249°
2026-05-04 14:58 54.66075 -6.20383 291 ft 148 kts 246°
2026-05-04 14:59 54.65442 -6.22668 345 ft 184 kts 244°
2026-05-04 14:59 54.64791 -6.24607 1038 ft 205 kts 242°
2026-05-04 14:59 54.63331 -6.29342 1691 ft 216 kts 249°
2026-05-04 15:00 54.62808 -6.31688 1699 ft 204 kts 260°
2026-05-04 15:00 54.62794 -6.34052 1668 ft 193 kts 284°
2026-05-04 15:00 54.63300 -6.36132 1568 ft 188 kts 306°
2026-05-04 15:01 54.65307 -6.38607 1643 ft 174 kts 343°
2026-05-04 15:01 54.66501 -6.38808 1603 ft 175 kts
2026-05-04 15:01 54.67651 -6.38143 1715 ft 174 kts 27°
2026-05-04 15:01 54.68558 -6.36793 1905 ft 172 kts 49°
2026-05-04 15:02 54.69165 -6.34936 1926 ft 185 kts 65°
2026-05-04 15:02 54.69677 -6.32849 2047 ft 188 kts 64°
2026-05-04 15:02 54.70194 -6.30718 2043 ft 200 kts 65°
2026-05-04 15:02 54.70756 -6.28500 2219 ft 198 kts 61°
2026-05-04 15:03 54.71360 -6.26502 2591 ft 187 kts 58°
2026-05-04 15:03 54.71974 -6.24369 2309 ft 209 kts 63°
2026-05-04 15:03 54.72572 -6.22028 2044 ft 214 kts 64°
2026-05-04 15:03 54.73135 -6.19732 2092 ft 202 kts 64°
2026-05-04 15:04 54.73680 -6.17548 1984 ft 198 kts 64°
2026-05-04 15:04 54.74207 -6.15440 1992 ft 185 kts 64°
2026-05-04 15:04 54.74682 -6.13402 1894 ft 179 kts 70°
2026-05-04 15:04 54.74867 -6.11239 1691 ft 183 kts 91°
2026-05-04 15:05 54.74609 -6.09214 1652 ft 164 kts 114°
2026-05-04 15:05 54.73971 -6.07646 1399 ft 161 kts 136°
2026-05-04 15:05 54.73081 -6.06557 1132 ft 157 kts 158°
2026-05-04 15:05 54.72061 -6.06011 1151 ft 150 kts 173°
2026-05-04 15:06 54.71042 -6.05660 1126 ft 150 kts 171°
2026-05-04 15:06 54.70074 -6.05968 1052 ft 139 kts 220°
2026-05-04 15:06 54.69532 -6.07296 937 ft 135 kts 249°
2026-05-04 15:07 54.68821 -6.10173 1322 ft 134 kts 248°
2026-05-04 15:07 54.68376 -6.11706 1190 ft 147 kts 245°
2026-05-04 15:07 54.67903 -6.13294 1134 ft 151 kts 249°
2026-05-04 15:07 54.67498 -6.15005 901 ft 156 kts 250°
2026-05-04 15:08 54.67054 -6.16686 691 ft 152 kts 247°
2026-05-04 15:08 54.66625 -6.18325 468 ft 149 kts 246°
2026-05-04 15:08 54.66187 -6.19954 279 ft 149 kts 245°
2026-05-04 15:08 54.65789 -6.21438 244 ft 117 kts 243°
2026-05-04 15:09 54.65514 -6.22455 229 ft 57 kts 244°
2026-05-04 15:09 54.65567 -6.22755 224 ft 28 kts 345°
2026-05-04 15:09 54.65715 -6.22771 219 ft 20 kts 42°
2026-05-04 15:10 54.65763 -6.22372 227 ft 16 kts 83°
2026-05-04 15:10 54.65781 -6.22162 232 ft 16 kts 76°
2026-05-04 15:10 54.65928 -6.22059 230 ft 16 kts 327°
2026-05-04 15:11 54.65930 -6.22229 228 ft 16 kts 245°
2026-05-04 15:11 54.65886 -6.22241 228 ft 4 kts 158°
2026-05-04 15:11 54.65885 -6.22240 228 ft 0 kts 158°